Weather in Roshchino

Russia / Novgorod Oblast     58°00′55″N   31°19′23″E
temp.,
°C
wind,
m/s
gust,
m/s
humid.,
%
clouds,
%
prec.,
mm/h
press.,
hPa
HPBL,
m
13 may, thu
thu1300:00+14ese3880100 0.0 1017142
03:00+13e310925 0.0 1015269
06:00+13ese412919 0.0 1015611
09:00+14sse68665 0.1 1016947
12:00+17sse58509 0.0 10151670
15:00+19sse6745100 0.0 10142168
18:00+17ese485788 0.0 1012960
21:00+11ese399299 1.2 1012346
14 may, fri
fri1400:00+10se39963 0.0 1012288
03:00+8se379711 0.0 1012185
06:00+7se389610 0.0 1012252
09:00+13se5107699 0.0 1012656
12:00+14se51068100 0.0 1011807
15:00+16se696396 0.0 1011857
18:00+17sse51065100 0.1 1009657
21:00+12ese2288100 0.2 100922
15 may, sat
sat1500:00+11ese35925 0.0 100778
03:00+10e249694 0.0 100679
06:00+11se3799100 1.6 1005260
09:00+14se249183 2.2 1004373
12:00+17sse348198 1.2 1004789
15:00+18ssw347694 4.4 1003919
18:00+17wsw3581100 1.8 1003490
21:00+13wsw389576 2.8 1005225
16 may, sun
sun1600:00+11w22956 0.0 100741
03:00+9w229498 0.0 100918
06:00+10s119137 0.0 101116
09:00+14sse227883 0.0 1012428
12:00+18s236072 0.0 10121236
15:00+20ssw124980 0.0 10121791
18:00+20s12539 0.0 10121344
21:00+14ese11755 0.0 101211
17 may, mon
mon1700:00+12se228516 0.0 101314
03:00+11se349247 0.0 101362
06:00+12se279270 0.0 1013152
09:00+17se4772100 0.0 1013443
12:00+21se5756100 0.0 10121331
15:00+24se5749100 0.0 10112077
18:00+22ese596045 0.0 1009766
21:00+18e61581100 0.8 1007521